www.pogodaiklimat.ru

Погода и климат >> Архив погоды >> Россия >> Кировская область >> Фаленки


ПОГОДА в Фаленках

  • Прогноз погоды в Фаленках
  • Монитор погоды в Фаленках
  • Климат города

АРХИВ ПОГОДЫ в Фаленках

Время (UTC), дата Ветер
(напр.,м/с)
 
Видим.   Явления Облачность Т
(С)
Тd
(С)
f
(%)
Тe
(С)
Тes
(С)
Комфортность P
(гПа)
Po
(гПа)
Тmin
(С)
Tmax
(С)
R
(мм)
R24
(мм)
S
(см)
12 18.05 ЮВ 4-7
{8}
35 км {ливн. осадки} 9/0
[Ac trans Ci]
+18.6 +11.3 62 +19 +23 1011.7 990.9
15 18.05 ЮВ 2-4
{9}
23 км в посл. час гроза 10/8 600 м
[Cb cap Ac trans]
+18.6 +9.5 55 +20 +20 1010.4 989.6 +18.9 4
18 18.05 ЮВ 2-3
{6}
10 км зарница {гроза} 10/3 600 м
[Cb cap Ac trans Ci fib]
+16.4 +10.4 68 +17 +17 1010.2 989.3
21 18.05 ЮВ 1-2
{3}
10 км 3/0
[Ci fib]
+12.0 +8.1 77 +12 +12 1009.3 988.1
00 19.05 Ю 2-3
{5}
29 км 10/0
[Cc]
+10.8 +6.8 76 +10 +10 1008.6 987.4
03 19.05 Ю 1-2
{4}
20 км слабый ливневой дождь 10/10 600 м
[Cb cap]
+12.0 +9.7 86 +12 +12 1007.6 986.5 +9.5 0.0
06 19.05 Ю 5-6
{7}
19 км {ливн. осадки} 10/0
[Ac trans Ci fib]
+19.6 +14.5 72 +21 +24 комфорт 1006.2 985.7
09 19.05 ЮЗ 7-11
{12}
29 км 8/8 1000 м
[Cu med, cong Ci fib]
+24.4 +13.6 51 +27 +27 жарко 1004.6 984.4
12 19.05 ЮЗ 7-11
{13}
40 км 10/4 600 м
[Cb cap Ac trans Ci fib]
+25.9 +11.3 40 +27 +28 жарко 1003.4 983.3
15 19.05 ЮЗ 4-5
{14}
29 км {гроза, ливн. осадки} 8/1 600 м
[Cb cap Ac trans Ci fib]
+18.6 +15.2 81 +19 +20 1002.9 982.4 +26.6 1
18 19.05 ЮЗ 4-6
{8}
20 км {гроза, ливн. осадки} 4/0
[Ac trans]
+17.7 +11.7 68 +17 +17 1002.9 982.4
21 19.05 З 2-5
{9}
10 км 1/0
[Ac trans]
+16.1 +11.3 73 +16 +16 1003.1 982.4
00 20.05 ЮЗ 4-6
{8}
22 км 3/0
[Ac trans]
+14.2 +11.5 84 +13 +13 1003.6 982.7
03 20.05 З 1-3
{7}
29 км 10/3 600 м
[Cb cap Ac As]
+15.0 +12.6 86 +15 +16 1004.0 983.1 +12.5
06 20.05 СЗ 3-4
{6}
9000 м дымка {ливн. осадки} 10/10 300 м
[Cb cap]
+13.8 +13.2 96 +13 +13 1004.6 983.7
09 20.05 С 7-10
{13}
30 км {ливн. осадки} 10/10 300 м
[Cb cap]
+11.1 +9.3 89 +8 +8 1010.0 988.7
12 20.05 С 5-9
{11}
35 км {ливн. осадки} 10/10 600 м
[Cb cap]
+9.7 +6.5 80 +7 +7 1012.5 991.0
15 20.05 С 5-8
{11}
30 км 10/10 600 м
[Cb cap]
+8.3 +4.1 75 +5 +5 1015.4 993.8 +15.2 5
18 20.05 С 3-6
{9}
20 км 10/10 600 м
[Cb cap]
+6.6 +3.3 79 +4 +4 1018.8 997.0
21 20.05 С 2-5
{6}
10 км 10/10 600 м
[Sc diur, vesp]
+6.0 +3.4 83 +4 +4 1020.5 998.5
00 21.05 С 3-5
{5}
14 км ясно +3.0 +1.7 91 -1 -1 1021.8 999.6
03 21.05 СВ 2-4
{8}
20 км 3/3 600 м
[Sc]
+4.0 +0.6 78 +1 +3 1024.2 1002.0 +2.5
06 21.05 СВ 3-5
{7}
50 км 1/0
[Ci fib]
+10.3 +0.2 50 +9 +17 1025.3 1003.5
09 21.05 С 2-4
{7}
50 км 3/1 1000 м
[Cu hum Ci fib]
+15.1 +1.7 40 +15 +27 опасность
простуды
1025.5 1004.1
12 21.05 СЗ 2-4
{7}
50 км 4/4 1000 м
[Cu med, cong]
+17.0 +0.2 32 +17 +22 1025.5 1004.3
15 21.05 С 3-4
{8}
50 км 3/3 1000 м
[Sc diur, vesp]
+17.4 +2.5 37 +17 +18 1025.3 1004.1 +18.3
18 21.05 З 1-2
{6}
19 км 3/0
[Ci fib]
+11.8 +6.2 69 +12 +12 1026.0 1004.3
21 21.05 З 2-4
{5}
10 км 3/0
[Ci fib]
+9.9 +4.5 69 +9 +9 1026.4 1004.6
00 22.05 СЗ 1-2
{5}
15 км 9/0
[Ci]
+10.6 +3.8 63 +11 +11 1026.7 1005.0
03 22.05 СЗ 2-4
{6}
29 км 9/0
[Ci]
+14.1 +5.1 55 +14 +16 1026.5 1005.1 +9.0
06 22.05 СЗ 5-10
{10}
50 км 3/0
[Ac trans]
+19.6 +7.0 44 +20 +25 1026.3 1005.2
09 22.05 СЗ 5-12
{12}
50 км ясно +24.2 +5.3 29 +24 +31 комфорт 1025.2 1004.6
12 22.05 СЗ 5-10
{12}
50 км 1/1 1000 м
[Cu hum]
+25.7 +4.5 26 +25 +29 комфорт 1024.4 1003.8
15 22.05 СЗ 3-6
{10}
50 км ясно +25.4 +7.3 32 +25 +27 комфорт 1024.0 1003.4 +26.5
18 22.05 З 2-4
{7}
23 км ясно +18.9 +7.3 47 +20 +20 1024.5 1003.4
21 22.05 СЗ 3-6
{7}
20 км ясно +18.7 +6.5 45 +19 +19 1024.5 1003.4
00 23.05 ЮЗ 1-3
{6}
25 км ясно +11.9 +7.8 76 +12 +12 1025.2 1003.7
03 23.05 ЮЗ 1-3
{3}
25 км ясно +16.0 +9.3 64 +17 +20 1025.0 1003.8 +10.9
06 23.05 З 2-7
{7}
50 км 10/0
[Ci]
+22.6 +7.0 37 +23 +32 комфорт 1024.0 1003.2
09 23.05 ЮЗ 1-4
{9}
35 км 10/0
[Ac und]
+21.4 +5.3 35 +22 +27 комфорт 1022.9 1002.1
12 23.05 ЮЗ 5-10
{10}
50 км 6/0
[Ac trans]
+22.4 +6.4 35 +23 +26 комфорт 1021.1 1000.4
15 23.05 ЮЗ 3-8
{11}
30 км 8/0
[Ac trans]
+21.4 +9.3 46 +23 +23 комфорт 1017.9 997.2 +24.8
18 23.05 З 2-4
{8}
26 км 3/1 600 м
[Cb calv Ac trans]
+17.2 +12.5 74 +18 +18 1016.8 995.8
21 23.05 З 2-5
{8}
10 км 9/8 600 м
[Cb cap Ac trans Ci fib]
+17.4 +12.9 75 +18 +18 1015.7 994.7
00 24.05 З 1-4
{7}
24 км 1/0
[Ac trans]
+14.3 +12.3 88 +15 +15 1015.0 993.8
03 24.05 СЗ 4-7
{9}
40 км ясно +16.2 +10.4 68 +16 +18 1014.9 993.9 +13.5
06 24.05 СЗ 4-9
{9}
40 км 9/9 600 м
[Cu med, cong]
+18.3 +9.8 58 +18 +19 1015.5 994.6
09 24.05 С 4-8
{11}
8000 м слабый ливневой дождь 9/9 600 м
[Cb cap]
+17.3 +11.0 66 +17 +18 1016.3 995.3
12 24.05 СВ 3-7
{8}
40 км {ливн. осадки} 8/8 600 м
[Cb cap]
+16.5 +9.8 65 +16 +18 1017.5 996.5
15 24.05 С 3-7
{9}
50 км 8/4 600 м
[Sc diur, vesp Ci fib]
+14.8 +7.3 61 +14 +15 1017.6 996.4 +20.3 3
18 24.05 С 2-5
{7}
18 км 8/8 600 м
[Cb cap]
+11.6 +2.9 55 +11 +11 1019.1 997.5
21 24.05 СВ 1-4
{5}
10 км 6/6 600 м
[Cb cap]
+7.0 +1.3 67 +6 +6 1019.6 997.7
00 25.05 СВ 1-3
{4}
30 км 10/8 1000 м
[Cb cap Ac trans]
+4.8 +1.2 77 +4 +4 1020.2 998.2
03 25.05 С 1-3
{4}
35 км 10/10 1000 м
[Sc]
+6.0 +0.9 70 +5 +5 1020.3 998.3 +4.1
06 25.05 СВ 2-4
{10}
21 км в посл. час ливневой дождь 10/10 600 м
[Cb cap]
+6.0 +1.5 73 +4 +4 1021.0 999.0
09 25.05 С 4-8
{11}
50 км {ливн. осадки} 10/10 600 м
[Cb cap]
+9.8 -2.7 41 +8 +8 1020.9 999.2

 

Местоположение метеостанции Фаленки (Кировская область, Россия): широта 58.35 долгота 51.57 высота над уровнем моря 178 м.

В архиве по умолчанию представлена погода в Фаленках за последнюю неделю. Архивные данные за месяц целиком и за предыдущие месяцы, начиная с января 2011 года, Вы можете получить, выбрав интересующий диапазон дат из раскрывающегося списка и нажав кнопку "Ввод!".


*Определитесь, кто Вы:
робот инопланетянин человек

Внимание! Время в таблицах - всемирное. Для получения местного времени необходимо прибавить поправку, которая в Фаленках равна 3 ч.

Смотрите также архив погоды в соседних городах и на ближайших метеорологических станциях:

Погода в Глазове (Удмуртия, Россия) (64 км)
Погода в Унях (Кировская область, Россия) (67 км)
Погода в Белой Холунице (Кировская область, Россия) (68 км)
Погода в Кумене (Кировская область, Россия) (101 км)
Погода в Нагорске (Кировская область, Россия) (116 км)
Погода в Кирове (Кировская область, Россия) (116 км)
Погода в Кирсе (Кировская область, Россия) (118 км)
Погода в Селтах (Удмуртия, Россия) (122 км)
Погода в Игре (Удмуртия, Россия) (127 км)
Погода в Нолинске (Кировская область, Россия) (131 км)

Пояснения к столбцам:

Ветер - указаны скорость ветра в м/с - средняя за 10 мин, порывы в срок и между сроками (в фигурных скобках) и направление, откуда дует ветер: С - северный, СВ - северо-восточный, В - восточный, ЮВ - юго-восточный, Ю - южный, ЮЗ - юго-западный, З - западный, СЗ - северо-западный.
Видимость - горизонтальная дальность видимости в метрах или километрах. При видимости от 1 до 10 км при отсутствии осадков обычно наблюдается дымка, при ухудшении видимости до 1 км и менее - туман. В сухую погоду видимость может ухудшаться дымом, пылью или мглою.
Явления - указаны атмосферные явления, наблюдавшиеся в срок или в последний час перед сроком; фигурными скобками обозначены явления, наблюдавшиеся между сроками (за 1-3 часа до срока); квадратными скобками обозначены град или гололедные отложения с указанием их диаметра в мм.
Облачность - указаны через наклонную черту общая и нижняя облачность в баллах и высота нижней границы облаков в метрах; квадратными скобками обозначены формы облаков: Ci - перистые, Cs - перисто-слоистые, Cc - перисто-кучевые, Ac - высококучевые, As - высокослоистые, Sc - слоисто-кучевые, Ns - слоисто-дождевые, Cu - кучевые, Cb - кучево-дождевые. Подробнее классификацию облаков см. в Атласе облаков (PDF).
T - Температура воздуха - температура, измеренная на высоте 2 м над землей.
Td - Температура точки росы - температура, при понижении до которой содержащийся в воздухе водяной пар достигнет насыщения.
f - Относительная влажность воздуха - влажноcть воздуха, измеренная на высоте 2 м над землей.
Te - Эффективная температура - температура, которую ощущает одетый по сезону человек в тени. Характеристика душности погоды. При расчете учитывается влияние влажности воздуха и скорости ветра на теплоощущения человека.
Tes - Эффективная температура на солнце - температура, которую ощущает человек, с поправкой на солнечный нагрев. Характеристика знойности погоды. Зависит от высоты солнца над горизонтом, облачности и скорости ветра. Ночью, в пасмурную погоду, а также при ветре 12 м/с и более поправка равна нулю.
P - Атмосферное давление - приведенное к уровню моря атмосферное давление.
Po - Атмосферное давление - измеренное на уровне метеостанции атмосферное давление.
Tmin - Минимальная температура - минимум температуры воздуха на высоте 2 м над землей.
Tmax - Максимальная температура - максимум температуры воздуха на высоте 2 м над землей.
R - Количество осадков - Количество выпавших осадков за период времени, мм. При наведении курсора мыши на число - период времени, за который выпало указанное количество осадков.
R24 - Количество осадков - Количество выпавших осадков за 24 часа, мм.
S - Снежный покров - Высота снежного покрова, см. При наведении курсора мыши на число - состояние снежного покрова и степень покрытия местности в баллах.